Track OPS 6582 (TRANSIT 5B-5) now! 10-day predictions OPS 6582 (TRANSIT 5B-5) is classified as:
1 00965U 64083D 22227.42268265 .00000028 00000-0 25672-4 0 9997 2 00965 90.0277 195.6037 0042898 58.1587 53.8544 13.56784619853514